Flag for U.S.A. Weather past 2 weeks in Charlottesville, Virginia, U.S.A.

Now
63 °F

Sunny.


Feels Like: 63 °F
Forecast: 39 / 69 °F
Wind: No wind

Location: Charlottesville-Albemarle Airport

Current Time: Oct 24, 2014 at 8:06:51 PM

Latest Report: Oct 24, 2014 at 6:53 PM


Visibility: 10 mi

Pressure: 29.93 "Hg

Humidity: 43%

Dew point: 40 °F

Location of CharlottesvilleLocation

Historic Weather in Charlottesville — Graph

°F

Charlottesville temperature yesterday

Maximum temperature yesterday: 66 °F (at 1:53 PM)
Minimum temperature yesterday: 51 °F (at 4:53 AM)
Average temperature yesterday: 58 °F

Past Weeks' High & Low Weather Summary

 TemperatureHumidityPressure
High75 °F (Oct 14, 12:53 PM)100% (Oct 16, 12:00 AM)30.28 "Hg (Oct 16, 12:00 AM)
Low37 °F (Oct 20, 5:53 AM)29% (Oct 19, 4:53 PM)29.65 "Hg (Oct 18, 4:53 AM)
Average58 °F75%29.96 "Hg
* Reported Oct 9 6:53 PM — Oct 24 6:53 PM, Charlottesville, Weather by CustomWeather, © 2014

Note: Actual official high and low records may vary slightly from our data, if they occured in-between our weather recording intervals... More about our weather records

Advertising

Charlottesville weather history for previous 24 hours

 ConditionsComfort  
Time TempWeatherWind HumidityBarometerVisibility
6:53 PM
Oct 24
63 °FSunny.No wind43%29.93 "Hg10 mi
5:53 PM66 °FSunny.3 mph36%29.92 "Hg10 mi
4:53 PM69 °FSunny.No wind33%29.92 "Hg8 mi
3:53 PM68 °FSunny.No wind30%29.93 "Hg10 mi
2:53 PM68 °FSunny.No wind33%29.93 "Hg10 mi
1:53 PM67 °FSunny.7 mph33%29.96 "Hg10 mi
12:53 PM65 °FSunny.6 mph39%29.97 "Hg10 mi
11:53 AM61 °FPartly sunny.9 mph44%30.00 "Hg10 mi
10:53 AMN/APartly sunny.6 mphN/A30.01 "Hg10 mi
9:53 AM55 °FSunny.3 mph62%30.01 "Hg10 mi
8:53 AM52 °FSunny.No wind66%30.01 "Hg10 mi
7:53 AM50 °FClear.5 mph68%30.01 "Hg10 mi
6:53 AM51 °FClear.3 mph66%30.00 "Hg10 mi
5:53 AM50 °FClear.9 mph68%29.97 "Hg10 mi
4:53 AM54 °FClear.No wind57%29.96 "Hg10 mi
3:53 AM53 °FClear.9 mph61%29.95 "Hg10 mi
2:53 AM55 °FClear.7 mph57%29.96 "Hg10 mi
1:53 AM54 °FClear.7 mph59%29.96 "Hg10 mi
12:53 AM53 °FClear.6 mph64%29.97 "Hg10 mi
11:53 PM
Oct 23
58 °FClear.13 mph51%29.96 "Hg10 mi
10:53 PM58 °FClear.12 mph54%29.96 "Hg10 mi
9:53 PM58 °FClear.14 mph54%29.97 "Hg10 mi
8:53 PM57 °FClear.6 mph55%29.96 "Hg10 mi
Weather by CustomWeather, © 2014

See weather overviewHow to use our weather pages